Погода в Пильне

Россия / Нижегородская область     55°33′18″N   45°55′10″E
темп.,
°C
ветер,
м/с
пор.,
м/с
влажн.,
%
обл.,
%
осадки,
мм/ч
давл.,
гПа
погр.,
м
18 апреля, вс
вс1800:00+5всв410790 0.0 1023277
03:00+4св410834 0.0 1023226
06:00+3св38822 0.0 1023202
09:00+9всв57545 0.0 1022657
12:00+13всв56365 0.0 10221303
15:00+14всв67385 0.0 10221795
18:00+12всв585085 0.0 1022367
21:00+7всв7137470 0.0 1024665
19 апреля, пн
пн1900:00+5всв61272100 0.0 1025554
03:00+3всв51162100 0.0 1026467
06:00+2всв61270100 0.0 1027597
09:00+4в81151100 0.0 1027844
12:00+6в81139100 0.0 10271344
15:00+8в8113775 0.0 10271563
18:00+6в7114462 0.0 10271335
21:00+4в6144380 0.0 1028630
20 апреля, вт
вт2000:00+3в6144692 0.0 1028569
03:00+1в613555 0.0 1029410
06:00+1в513595 0.0 1029440
09:00+6вюв812420 0.0 1029970
12:00+9вюв810310 0.0 10281450
15:00+10вюв810290 0.0 10271600
18:00+8вюв712355 0.0 10251173
21:00+6вюв71439100 0.0 1025767
21 апреля, ср
ср2100:00+5вюв81641100 0.0 1022832
03:00+5юв91746100 0.0 1021887
06:00+2вюв102081100 2.1 1019738
09:00+2юв102085100 4.4 1018880
12:00+2юв101990100 3.2 1017870
15:00+3юв101788100 3.3 1017839
18:00+3ююв91690100 0.1 1017740
21:00+3ююв81691100 0.3 1018668
22 апреля, чт
чт2200:00+4ю61294100 0.0 1019518
03:00+4ю51095100 0.0 1020344
06:00+4ю3895100 0.0 1021254
09:00+7ю5983100 0.0 1022421
12:00+11ююз5760100 0.1 10221483
15:00+12ююз575986 0.5 10231312
18:00+11ю477193 0.4 1023237
21:00+8ю2590100 1.3 1024148